Back to catalog

COSMOS 2251 DEB

AliveLEO
NORAD 34014·DEBRIS·🇷🇺 Russia

Launched Jun 16, 1993 from Plesetsk Cosmodrome

Loading…

Next Passes (next 24 hours)

TLE

FreshSource: Space-Track

Epoch: Sep 14, 2026, 08:34 UTC

1 34014U 93036GZ  26257.35701461  .00002980  00000-0  43394-3 0  9997
2 34014  74.0138 101.6653 0038314 172.9186   1.9928 14.75847087933669

Track COSMOS 2251 DEB in real time with AllMySat

Download on the App Store